Oak Harbor, WA

2:42 PM PDT on September 24, 2016 (GMT -0700)
Whidbey Island Naval Air Station

Weather History for KNUW - July, 2013

Change the Weather History Date:

Monday, July 8, 2013

  Actual Average Record
Temperature  
Mean Temperature 60 °F -  
Max Temperature 68 °F 63 °F 79 °F (2010)
Min Temperature 53 °F 49 °F 33 °F (1996)
Degree Days  
Heating Degree Days 6    
Growing Degree Days 10 (Base 50)    
Moisture  
Dew Point 54 °F    
Average Humidity 85    
Maximum Humidity 94    
Minimum Humidity 73    
Precipitation  
Precipitation 0.00 in - - ()
Sea Level Pressure  
Sea Level Pressure 30.07 in    
Wind  
Wind Speed 6 mph (WSW)    
Max Wind Speed 9 mph    
Max Gust Speed -    
Visibility 9 miles    
Events      
Averages and records for this station are not official NWS values.
T = Trace of Precipitation, MM = Missing Value Source: NWS Daily Summary

Daily Weather History Graph

Daily Weather History Graph

Search for Another Location

Airport or City:

Trip Planner

Search our weather history database for the weather conditions in past years. The results will help you decide how hot, cold, wet, or windy it might be!

Date:

Astronomy

Jul. 08, 2013 Rise Set
Actual Time 5:19 AM PDT 9:12 PM PDT
Civil Twilight 4:38 AM PDT 9:52 PM PDT
Nautical Twilight 3:42 AM PDT 10:48 PM PDT
Astronomical Twilight 2:14 AM PDT 12:14 AM PDT
Moon 6:01 AM PDT (7/8) 9:07 PM PDT (7/8)
Length of Visible Light 17h 14m
Length of Day
15h 53m
New Moon, 0% of the Moon is Illuminated
Jul 8
New Moon
Jul 15
First Quarter
Jul 22
Full
Jul 29
Last Quarter
Aug 6
New

Hourly Weather History & Observations

Time (PDT) Temp. Dew Point Humidity Pressure Visibility Wind Dir Wind Speed Gust Speed Precip Events Conditions
12:56 AM 54.0 °F 52.0 °F 93% 29.98 in 10.0 mi SW 6.9 mph - N/A   Scattered Clouds
1:56 AM 54.0 °F 52.0 °F 93% 29.98 in 8.0 mi SSW 8.1 mph - N/A   Scattered Clouds
2:56 AM 53.1 °F 51.1 °F 93% 30.00 in 8.0 mi SSW 9.2 mph - N/A   Scattered Clouds
3:15 AM 53.6 °F 51.8 °F 94% 29.99 in 8.0 mi SSW 5.8 mph - N/A   Mostly Cloudy
3:56 AM 54.0 °F 52.0 °F 93% 30.01 in 9.0 mi SSW 5.8 mph - N/A   Mostly Cloudy
4:56 AM 54.0 °F 51.1 °F 90% 30.02 in 10.0 mi SSW 6.9 mph - N/A   Mostly Cloudy
5:33 AM 53.6 °F 51.8 °F 94% 30.02 in 9.0 mi SSW 6.9 mph - N/A   Scattered Clouds
5:56 AM 55.0 °F 52.0 °F 89% 30.04 in 7.0 mi South 5.8 mph - N/A   Scattered Clouds
6:32 AM 55.4 °F 51.8 °F 88% 30.04 in 9.0 mi South 4.6 mph - N/A   Mostly Cloudy
6:56 AM 57.0 °F 53.1 °F 87% 30.06 in 8.0 mi SE 4.6 mph - N/A   Mostly Cloudy
7:56 AM 57.0 °F 54.0 °F 89% 30.08 in 8.0 mi SSE 5.8 mph - N/A   Overcast
8:56 AM 60.1 °F 55.0 °F 83% 30.09 in 8.0 mi South 6.9 mph - N/A   Overcast
9:56 AM 57.9 °F 54.0 °F 87% 30.10 in 8.0 mi West 6.9 mph - N/A   Overcast
10:56 AM 59.0 °F 55.0 °F 87% 30.11 in 8.0 mi NW 4.6 mph - N/A   Overcast
11:56 AM 61.0 °F 55.0 °F 81% 30.12 in 9.0 mi WNW 4.6 mph - N/A   Overcast
12:19 PM 62.6 °F 55.4 °F 77% 30.11 in 10.0 mi WNW 4.6 mph - N/A   Mostly Cloudy
12:42 PM 66.2 °F 57.2 °F 73% 30.11 in 10.0 mi WNW 6.9 mph - N/A   Scattered Clouds
12:56 PM 64.0 °F 55.9 °F 75% 30.12 in 10.0 mi WNW 8.1 mph - N/A   Scattered Clouds
1:56 PM 64.9 °F 55.9 °F 73% 30.11 in 10.0 mi WNW 6.9 mph - N/A   Scattered Clouds
2:56 PM 66.0 °F 57.0 °F 73% 30.10 in 10.0 mi NW 5.8 mph - N/A   Scattered Clouds
3:56 PM 64.9 °F 55.9 °F 73% 30.10 in 10.0 mi WNW 5.8 mph - N/A   Scattered Clouds
4:56 PM 61.0 °F 55.9 °F 83% 30.10 in 9.0 mi WSW 8.1 mph - N/A   Scattered Clouds
5:56 PM 61.0 °F 55.0 °F 81% 30.10 in 9.0 mi WSW 5.8 mph - N/A   Scattered Clouds
6:56 PM 60.1 °F 53.1 °F 78% 30.10 in 10.0 mi West 4.6 mph - N/A   Scattered Clouds
7:56 PM 59.0 °F 53.1 °F 81% 30.10 in 10.0 mi SW 8.1 mph - N/A   Scattered Clouds
8:56 PM 55.9 °F 52.0 °F 87% 30.10 in 10.0 mi SW 3.5 mph - N/A   Scattered Clouds
9:56 PM 55.9 °F 52.0 °F 87% 30.11 in 9.0 mi Calm Calm - N/A   Scattered Clouds
10:56 PM 55.0 °F 52.0 °F 89% 30.12 in 10.0 mi Calm Calm - N/A   Scattered Clouds
11:56 PM 55.0 °F 52.0 °F 89% 30.12 in 10.0 mi WSW 5.8 mph - N/A   Partly Cloudy